カタログに戻る

BREEZE-M DEB

TANK

運用中HEO
NORAD 40366·DEBRIS·🇷🇺 Russia

打ち上げ Dec 27, 2014 から Baikonur Cosmodrome

Loading…

次のパス (今後24時間)

TLE

最新Source: Space-Track

元期: Sep 14, 2026, 04:01 UTC

1 40366U 14089C   26257.16804089  .00001192  00000-0  39112-3 0  9991
2 40366  49.5651 324.9505 5120930 320.4140  11.6777  5.37228658224501

AllMySatでBREEZE-M DEBをリアルタイム追跡

Download on the App Store